{"data":{"norad_id":39011,"intl_designator":"2012-066A","name":"YAOGAN-16 01A","alt_names":[],"object_type":"PAYLOAD","status":"ACTIVE","operator":null,"country":"PRC","launch_date":"2012-11-25","launch_site_code":"JSC","launch_vehicle":null,"mission":null,"orbit_class":"UNKNOWN","rcs_meters":2.511,"size_class":null,"mass_kg":null,"dimensions":null,"purposes":[],"wikipedia_slug":null,"has_3d_model":false,"image_url":null,"decayed_at":null,"tle_current":{"epoch":"2026-09-19T08:15:20.585664Z","epoch_age_seconds":133602,"freshness":"FRESH","line1":"1 39011U 12066A   26262.34398826 -.00000070  00000+0  19973-4 0  9990","line2":"2 39011  63.3530  46.5872 0443009  27.9423 334.4645 13.45521851678819","mean_motion":13.45521851,"eccentricity":0.0443009,"inclination_deg":63.353,"raan_deg":46.5872,"arg_perigee_deg":27.9423,"mean_anomaly_deg":334.4645,"bstar":1.9973e-5,"rev_number":67881,"period_min":107.0216733329,"perigee_km":757.9890885894,"apogee_km":1419.5713967406,"semimajor_km":7466.917242665,"source":"CELESTRAK","updated_at":"2026-09-20T09:00:13.895671Z"}}}